TimeEST,TemperatureF,Dew PointF,Humidity,Sea Level PressureIn,VisibilityMPH,Wind Direction,Wind SpeedMPH,Gust SpeedMPH,PrecipitationIn,Events,Conditions,WindDirDegrees,DateUTC
12:54 AM,44.1,41.0,89,30.17,4.0,Calm,Calm,-,N/A,,Clear,0,2012-11-21 05:54:00
1:19 AM,39.2,39.2,100,30.17,1.5,Calm,Calm,-,N/A,,Partly Cloudy,0,2012-11-21 06:19:00
1:21 AM,39.2,39.2,100,30.17,0.8,Calm,Calm,-,N/A,,Mist,0,2012-11-21 06:21:00
1:46 AM,39.2,39.2,100,30.17,1.2,Calm,Calm,-,N/A,,Mostly Cloudy,0,2012-11-21 06:46:00
1:51 AM,39.2,39.2,100,30.17,0.8,Calm,Calm,-,N/A,,Mist,0,2012-11-21 06:51:00
1:54 AM,39.9,39.0,97,30.18,1.0,Calm,Calm,-,N/A,,Mist,0,2012-11-21 06:54:00
2:12 AM,39.2,39.2,100,30.18,0.5,Calm,Calm,-,N/A,Fog,Fog,0,2012-11-21 07:12:00
2:24 AM,39.2,39.2,100,30.18,0.2,Calm,Calm,-,N/A,Fog,Fog,0,2012-11-21 07:24:00
2:36 AM,39.2,37.4,93,30.18,0.5,Calm,Calm,-,N/A,Fog,Fog,0,2012-11-21 07:36:00
2:54 AM,37.9,37.0,97,30.19,0.5,Calm,Calm,-,N/A,Fog,Fog,0,2012-11-21 07:54:00
3:06 AM,37.4,37.4,100,30.19,0.2,Calm,Calm,-,N/A,Fog,Fog,0,2012-11-21 08:06:00
3:15 AM,37.4,37.4,100,30.19,1.0,Calm,Calm,-,N/A,,Mist,0,2012-11-21 08:15:00
3:31 AM,37.4,35.6,93,30.19,0.5,Calm,Calm,-,N/A,Fog,Fog,0,2012-11-21 08:31:00
3:45 AM,35.6,35.6,100,30.19,0.2,Calm,Calm,-,N/A,Fog,Fog,0,2012-11-21 08:45:00
3:54 AM,37.0,37.0,100,30.19,0.2,Calm,Calm,-,N/A,Fog,Fog,0,2012-11-21 08:54:00
4:54 AM,37.0,37.0,100,30.21,0.2,Calm,Calm,-,0.00,Fog-Snow,Light Snow,0,2012-11-21 09:54:00
5:54 AM,37.0,37.0,100,30.22,0.2,Calm,Calm,-,0.00,Fog,Fog,0,2012-11-21 10:54:00
6:54 AM,37.9,37.0,97,30.22,0.2,Calm,Calm,-,N/A,Fog,Fog,0,2012-11-21 11:54:00
7:54 AM,37.0,37.0,100,30.25,0.2,Calm,Calm,-,N/A,Fog,Fog,0,2012-11-21 12:54:00
8:54 AM,37.0,36.0,96,30.27,0.2,Calm,Calm,-,N/A,Fog,Fog,0,2012-11-21 13:54:00
9:54 AM,37.9,37.9,100,30.27,0.2,Calm,Calm,-,N/A,Fog,Fog,0,2012-11-21 14:54:00
10:54 AM,39.0,39.0,100,30.29,0.2,Calm,Calm,-,N/A,Fog,Fog,0,2012-11-21 15:54:00
11:49 AM,42.8,42.8,100,30.27,0.5,Calm,Calm,-,N/A,Fog,Fog,0,2012-11-21 16:49:00
11:54 AM,43.0,43.0,100,30.27,0.5,Calm,Calm,-,N/A,Fog,Fog,0,2012-11-21 16:54:00
12:04 PM,44.6,44.6,100,30.26,2.0,Calm,Calm,-,N/A,,Overcast,0,2012-11-21 17:04:00
12:20 PM,46.4,44.6,93,30.25,2.0,Calm,Calm,-,N/A,,Scattered Clouds,0,2012-11-21 17:20:00
12:54 PM,50.0,45.0,83,30.25,2.0,Calm,Calm,-,N/A,,Haze,0,2012-11-21 17:54:00
1:21 PM,53.6,44.6,72,30.24,7.0,WNW,3.5,-,N/A,,Haze,300,2012-11-21 18:21:00
1:54 PM,55.0,45.0,69,30.23,3.0,WSW,3.5,-,N/A,,Haze,240,2012-11-21 18:54:00
2:54 PM,57.0,44.1,62,30.21,7.0,Variable,3.5,-,N/A,,Clear,0,2012-11-21 19:54:00
3:54 PM,57.0,44.1,62,30.20,7.0,SW,4.6,-,N/A,,Clear,230,2012-11-21 20:54:00
4:54 PM,55.0,44.1,67,30.20,7.0,West,3.5,-,N/A,,Clear,270,2012-11-21 21:54:00
5:54 PM,51.1,43.0,74,30.19,6.0,SW,3.5,-,N/A,,Haze,230,2012-11-21 22:54:00
6:54 PM,45.0,42.1,90,30.20,6.0,Calm,Calm,-,N/A,,Clear,0,2012-11-21 23:54:00
7:54 PM,45.0,42.1,90,30.19,5.0,South,3.5,-,N/A,,Clear,170,2012-11-22 00:54:00
8:54 PM,42.1,39.9,92,30.19,5.0,Calm,Calm,-,N/A,,Clear,0,2012-11-22 01:54:00
9:54 PM,41.0,41.0,100,30.19,4.0,Calm,Calm,-,N/A,,Clear,0,2012-11-22 02:54:00
10:54 PM,39.0,37.9,96,30.19,3.0,Calm,Calm,-,N/A,,Clear,0,2012-11-22 03:54:00
11:54 PM,39.9,39.9,100,30.19,3.0,Calm,Calm,-,N/A,,Clear,0,2012-11-22 04:54:00